Tracking 19796 objects as of 19-Jul-2019
HD Live streaming from Space Station
objects crossing your sky now

ORBCOMM FM 34

Track ORBCOMM FM 34 now!
10-day predictions
ORBCOMM FM 34 is classified as:


NORAD ID: 25986
Int'l Code: 1999-065G
Perigee: 787.0 km
Apogee: 792.4 km
Inclination: 45.0 °
Period: 100.5 minutes
Semi major axis: 7160 km
RCS: 0.5409 m2 (medium)
Launch date: December 4, 1999
Source: ORBCOMM (ORB)
Launch site: AIR FORCE EASTERN TEST RANGE (AFETR)
aabbcc
Your satellite tracking list
Your tracking list is empty




NASA's NSSDC Master Catalog

Two Line Element Set (TLE):
1 25986U 99065G   19199.92617263 +.00000026 +00000-0 +60597-4 0  9993
2 25986 045.0391 183.6253 0003752 342.8763 017.1957 14.32747307024949
Source of the keplerian elements: AFSPC